Location: Innsbruck
(47.2657°N, 11.3914°E)
Time: 07:25:33
(UTC+02:00)

Nauka - Pass Details

Date: 28 September 2021
Orbit: 418 x 423 km, 51.6° (Epoch: 18 October)

Event Time Altitude Azimuth Distance (km) Brightness Sun altitude
Rises 20:59:26 0° 294° (WNW) 2,368 ? -20.8°
Reaches altitude 10° 21:01:33 10° 297° (WNW) 1,503 ? -21.1°
Enters shadow 21:04:29 57° 338° (NNW) 498 ? -21.6°
